Wind_Speed
17 17 17 17 17 17 17 18 18 18 17 18 18 18 18 18 18 17 16 16 16 16 17 17 17 17 16 15 14 13 13 13 15 14 12 13 18 22 23 22 22 22 22 24 27 27 26 24 22 21 19 17 15 13 12 11 9 9 5 2 2 4 5 5 7 5 2 2 2 3 2 8 13 17 15 15 12 5 6 5 4 3 6 9 12 20 27 28
17 17 17 17 17 17 18 18 18 18 18 17 17 17 18 18 19 18 17 16 16 16 17 17 17 17 17 16 15 14 13 13 14 12 10 13 18 23 25 25 25 23 22 24 24 24 25 24 23 22 20 17 15 15 14 11 10 10 6 5 5 7 7 6 6 4 2 4 1 2 5 7 13 19 17 15 12 11 11 6 3 4 7 13 16 23 27 27
17 18 18 18 18 18 19 19 19 19 19 18 17 17 17 18 19 19 19 17 16 17 17 17 17 17 17 17 15 15 14 13 12 10 10 14 17 22 25 26 26 22 20 20 20 21 22 22 23 23 21 18 17 16 14 12 11 9 8 7 7 7 6 6 5 6 2 2 2 7 8 7 11 15 15 13 11 12 10 4 1 3 9 15 20 24 26 27
18 19 19 19 19 20 20 20 20 20 20 20 19 18 17 18 18 19 19 18 17 17 17 18 17 17 17 17 16 15 14 13 12 10 10 13 16 20 22 23 23 20 18 19 20 21 21 24 25 23 22 20 19 17 15 14 11 11 10 6 7 5 3 6 5 5 4 3 5 9 9 8 9 11 14 15 14 13 10 4 2 1 6 11 20 24 25 27
19 20 20 21 21 21 21 21 21 21 22 22 21 20 19 18 19 19 19 19 18 17 18 18 18 17 17 17 16 16 15 12 9 5 4 7 13 18 19 20 20 18 19 21 22 24 25 28 27 25 24 21 22 20 17 14 10 13 12 5 4 2 2 3 3 2 5 7 8 10 7 8 12 14 17 16 14 10 6 4 3 2 2 3 14 22 24 26
20 20 20 21 21 22 22 22 22 23 23 23 23 22 21 20 20 20 20 20 19 18 18 19 19 17 17 17 16 16 14 11 8 6 5 4 8 16 18 18 20 20 21 23 24 26 28 30 30 29 27 24 24 21 17 14 12 13 12 6 3 4 4 1 0 2 5 10 11 11 8 10 16 18 18 16 14 10 5 5 3 3 3 2 8 16 21 23
20 20 20 21 21 22 22 22 23 23 23 24 24 23 23 22 21 21 21 21 19 19 18 19 19 18 18 17 17 16 13 12 12 11 9 6 7 14 18 18 21 23 24 24 24 27 30 32 33 31 28 27 26 22 17 15 14 12 10 8 4 5 6 4 5 6 5 12 12 12 12 12 14 17 17 14 13 9 6 7 5 4 5 5 8 13 17 20
19 19 19 20 20 21 21 22 22 23 23 24 24 24 24 24 23 23 22 22 20 20 19 19 20 19 18 17 18 15 12 14 14 12 10 7 7 13 18 20 22 24 24 23 23 25 29 33 34 32 30 28 26 22 18 16 17 15 11 9 6 8 11 7 8 9 7 12 11 11 14 14 14 15 14 13 14 9 7 7 7 8 6 6 8 11 17 21
18 18 18 18 18 19 19 20 20 21 22 23 24 24 24 24 25 24 24 23 22 21 21 20 20 20 19 18 18 14 12 15 13 10 10 9 8 12 17 20 22 22 21 21 20 23 29 33 34 33 31 26 23 22 19 18 19 16 11 9 8 11 12 9 10 10 9 12 12 11 12 14 18 19 16 16 15 10 8 7 8 9 7 7 8 10 17 22
18 18 18 18 19 19 18 19 19 19 20 21 22 23 24 25 25 25 25 25 24 22 22 21 21 21 20 19 18 12 11 15 12 11 11 9 9 12 15 19 22 22 21 20 20 22 27 30 31 31 28 24 23 21 21 21 19 15 13 12 12 12 13 13 13 13 12 11 13 13 10 11 18 23 22 21 18 12 9 8 10 8 6 7 9 11 15 21
18 19 19 20 20 20 19 19 19 19 19 20 20 21 23 24 24 25 25 26 25 24 24 23 22 22 21 21 18 11 11 16 15 14 14 12 11 11 14 17 20 22 22 21 20 19 21 25 27 28 26 25 23 20 21 21 17 17 17 18 19 18 18 17 17 19 18 14 13 13 11 10 19 25 24 22 20 16 10 9 12 9 6 8 10 12 14 19
20 20 21 21 21 21 20 20 20 20 20 20 20 21 22 22 23 23 24 26 25 25 26 24 24 23 24 22 14 10 14 17 18 19 19 16 13 13 15 17 18 21 23 23 21 18 18 23 27 29 27 24 22 18 20 22 19 18 20 23 24 23 25 23 20 20 22 21 14 11 12 15 22 27 26 24 22 18 13 11 13 11 8 9 11 13 14 17
21 22 22 21 21 20 20 20 20 20 20 20 21 21 22 22 23 22 23 25 25 26 26 26 26 24 27 22 9 9 14 16 21 23 20 17 14 15 17 18 18 19 22 23 21 17 17 23 29 31 27 23 22 17 16 20 20 20 21 24 24 23 28 28 25 21 22 23 17 13 17 21 23 27 30 28 25 21 16 14 14 13 11 11 12 13 14 17
22 23 23 21 20 20 20 21 21 21 21 21 21 22 22 22 23 23 22 23 24 26 26 28 28 26 29 23 11 13 18 19 23 21 18 16 13 15 16 19 19 19 22 23 22 19 18 23 29 29 26 25 24 18 16 18 20 22 22 24 24 25 27 25 24 26 26 23 20 19 21 22 23 28 34 33 28 23 19 17 17 15 13 12 13 14 14 16
22 23 22 20 19 20 21 22 22 22 23 22 23 23 23 23 23 23 22 22 22 24 26 28 29 28 30 24 16 18 19 21 22 18 17 18 15 14 14 17 18 18 20 22 23 22 20 25 30 31 29 26 23 21 21 21 21 22 22 24 25 25 26 23 20 25 30 25 22 25 23 21 21 24 32 35 31 24 20 19 17 16 15 13 14 15 15 15
23 22 20 19 20 20 21 22 23 23 24 24 24 25 26 26 25 25 24 22 22 22 25 27 28 28 29 24 18 20 20 18 17 16 19 18 16 15 14 16 17 18 20 22 24 24 25 29 30 30 28 26 25 24 24 25 26 26 24 24 24 23 24 24 20 21 28 28 27 26 24 20 18 21 28 34 34 28 23 21 18 17 16 15 15 16 17 17
23 22 19 19 20 20 22 23 24 24 25 26 26 26 27 27 27 26 23 21 21 22 24 27 27 28 27 22 17 17 20 22 20 19 20 18 16 16 16 17 18 19 21 23 25 26 30 33 30 29 29 29 29 26 25 28 32 31 28 25 24 22 22 23 23 21 21 26 30 28 25 23 21 23 27 32 36 32 27 24 19 17 17 16 17 18 19 19
24 21 20 20 21 21 22 24 25 25 25 27 27 28 29 29 28 25 21 18 18 20 23 25 25 26 23 20 19 17 17 22 25 24 23 20 17 15 16 15 16 19 22 26 28 30 34 36 32 29 31 32 32 32 32 32 34 33 29 26 24 24 23 22 23 24 23 24 30 31 29 27 23 26 31 34 37 35 30 27 19 15 16 17 19 20 20 19
24 22 21 22 23 23 24 25 26 26 26 27 28 29 29 29 27 24 20 18 18 17 19 21 23 24 21 15 15 19 20 20 22 25 24 22 20 17 16 15 16 18 24 29 31 33 36 37 33 32 37 39 39 39 38 34 30 29 28 26 23 23 25 23 22 24 26 26 29 31 33 30 25 26 33 36 38 36 31 27 20 15 16 18 20 21 21 20
26 24 23 23 24 25 25 26 26 27 28 28 29 29 31 32 31 29 23 20 22 20 17 19 24 28 27 19 12 18 25 24 23 23 23 23 23 22 20 21 21 20 25 30 33 36 38 38 39 43 44 43 42 39 37 34 29 26 25 24 22 22 24 25 24 24 25 26 28 29 31 31 29 30 34 37 39 37 31 26 22 18 16 17 21 22 22 21
27 26 25 24 25 25 26 26 26 27 28 28 30 31 34 36 36 36 32 25 22 18 20 17 23 28 27 23 17 19 24 28 28 24 24 25 26 28 28 27 29 29 28 28 30 33 36 40 45 47 44 39 39 39 35 32 31 28 24 24 24 23 24 24 24 24 23 26 29 28 29 31 32 33 36 39 40 39 34 29 25 21 18 16 19 21 20 20
27 26 26 25 25 25 26 26 25 26 27 27 28 29 30 31 31 34 37 33 22 14 17 12 16 23 22 19 18 23 27 29 30 27 27 27 27 32 34 34 36 35 31 28 29 32 36 43 47 44 39 35 33 36 36 33 31 30 27 26 28 28 27 27 27 25 24 27 29 27 30 33 35 35 36 37 36 38 37 32 26 22 22 19 17 19 21 22
27 27 26 26 25 25 26 25 25 25 25 26 26 26 27 26 26 27 32 33 20 14 15 14 9 10 14 16 18 29 33 30 29 30 30 29 29 30 34 39 40 36 34 35 35 36 39 43 44 41 36 33 30 31 34 34 32 32 31 30 33 32 29 31 32 29 26 28 30 29 31 34 37 40 43 41 35 35 36 33 28 25 24 20 15 16 21 25
28 27 27 27 25 24 25 24 24 24 23 25 24 24 24 22 24 25 28 26 15 14 14 14 13 7 1 10 20 31 34 30 29 30 30 29 29 29 35 42 41 37 38 39 38 40 42 38 35 38 38 33 31 30 30 32 34 36 36 36 36 35 34 34 33 29 25 25 27 30 32 31 39 46 49 48 41 37 37 35 32 28 26 19 13 15 21 24
29 28 27 27 26 24 24 24 23 22 22 23 21 21 21 19 20 23 27 21 11 12 13 13 14 13 12 2 16 25 30 34 32 29 30 30 27 29 36 40 41 39 39 39 38 40 43 35 25 30 38 37 33 33 33 33 34 37 40 41 39 36 35 36 33 27 25 23 23 25 24 23 37 49 51 51 48 43 40 39 36 32 29 24 19 18 20 24
29 29 27 27 26 24 23 23 22 21 20 20 19 20 19 18 17 19 22 15 8 12 12 12 13 11 13 9 6 13 23 32 33 30 29 30 29 29 33 39 41 38 36 36 36 39 42 36 24 19 29 38 36 35 36 34 34 37 42 43 41 38 36 37 34 25 23 25 21 21 22 21 32 47 52 53 52 48 45 42 40 37 33 30 26 21 21 25
30 29 27 26 27 25 24 24 23 22 21 19 18 19 18 15 14 16 16 8 4 10 9 8 14 14 13 11 5 6 9 12 21 32 31 30 31 31 33 37 38 36 33 32 34 39 40 38 33 23 24 34 39 39 37 37 38 38 39 38 39 40 38 38 35 26 26 28 24 23 28 27 28 41 50 54 54 51 49 46 44 42 38 33 29 25 23 25
30 30 28 26 27 27 26 25 25 23 22 21 19 19 17 13 12 11 8 2 3 9 7 8 12 12 9 8 7 1 3 4 7 20 29 31 32 34 36 36 35 34 32 34 39 39 35 37 39 33 29 33 39 41 38 38 40 39 34 31 34 37 38 40 37 32 32 28 26 29 27 19 21 38 48 52 56 54 52 51 48 45 40 35 33 29 26 24
31 30 29 27 26 27 27 27 26 25 23 22 20 18 15 11 8 7 3 1 5 10 11 12 10 7 8 8 10 10 5 9 8 5 17 30 34 34 34 34 34 32 30 35 40 34 28 31 34 35 37 38 35 34 36 38 38 38 32 27 26 28 35 38 34 35 35 23 24 35 28 13 13 33 47 50 56 58 54 52 50 47 43 39 36 32 29 26
32 30 29 28 25 25 26 24 24 24 23 22 20 17 13 9 7 5 1 2 11 15 16 16 12 9 9 10 9 11 14 9 9 7 11 22 31 34 32 30 31 34 32 34 38 35 29 23 25 33 38 39 35 30 32 36 34 34 32 29 27 26 30 33 31 33 28 15 24 41 35 18 10 23 43 50 53 54 52 52 51 49 46 41 38 36 33 30
32 30 29 28 26 24 24 20 19 20 20 20 17 14 11 6 3 2 1 7 14 19 19 17 14 8 8 18 20 16 11 8 8 4 3 9 22 32 32 26 28 34 34 33 35 35 34 27 26 30 30 32 36 33 29 30 32 32 31 30 29 28 27 27 30 30 15 7 27 42 35 23 14 18 32 44 50 51 49 49 49 49 47 43 41 39 37 35
32 31 29 28 25 23 22 18 18 17 16 17 14 12 10 4 4 4 8 12 11 17 23 21 17 12 14 25 27 20 15 12 12 8 6 5 13 27 33 30 27 30 33 36 33 29 36 39 34 30 27 29 35 37 31 28 34 36 34 32 25 16 15 14 15 15 7 10 30 36 25 19 20 26 30 32 43 51 47 41 40 42 43 42 41 40 39 38
32 32 30 27 23 21 19 17 17 16 14 14 12 11 9 2 4 7 14 16 12 18 25 26 24 22 23 27 24 24 24 16 12 12 9 4 5 14 28 36 30 25 28 31 28 25 29 36 38 37 33 30 34 40 37 32 38 41 38 37 26 10 6 7 5 5 5 14 31 32 19 13 17 27 33 29 31 42 43 40 39 38 38 36 35 37 39 40
32 33 30 24 20 18 18 17 17 15 13 13 10 7 4 3 4 10 13 16 18 22 25 28 31 28 23 21 20 25 23 14 16 18 16 13 8 6 7 27 31 29 29 28 29 30 25 24 34 42 38 33 33 37 39 35 36 42 40 38 36 24 12 6 4 5 5 8 22 28 16 11 15 20 31 31 26 29 34 37 40 39 36 30 27 34 40 41
31 33 29 22 17 16 17 16 15 13 11 10 7 6 6 6 7 9 11 16 20 24 27 28 29 25 20 14 14 21 18 17 25 24 17 20 15 16 13 4 10 10 12 14 22 27 27 29 33 33 32 36 35 33 37 37 34 38 40 38 41 39 24 8 4 8 8 5 11 22 15 12 16 15 21 29 29 27 25 27 37 42 39 32 29 35 40 42
28 30 26 20 18 16 15 12 11 10 7 6 6 9 9 7 6 7 12 17 21 25 28 27 23 21 20 16 15 20 20 20 26 25 18 16 15 18 15 12 12 11 11 5 12 14 19 32 33 26 28 36 39 34 35 38 35 34 41 44 43 42 32 16 8 8 10 6 7 19 21 20 19 15 19 26 29 29 24 22 30 39 41 38 35 35 36 40
28 27 21 16 17 17 13 7 6 5 5 6 6 7 8 6 7 10 15 20 22 21 20 20 19 17 18 19 19 23 25 23 22 24 22 16 15 20 14 9 13 14 16 8 12 14 12 23 27 27 29 32 37 36 34 38 38 34 41 47 41 34 31 24 12 5 6 5 6 17 25 24 18 20 27 33 34 32 29 27 27 31 38 39 37 35 33 37
30 27 18 13 16 17 13 6 1 2 4 7 6 5 6 6 8 12 16 20 19 14 13 14 16 16 18 20 21 23 25 22 22 24 23 18 14 19 19 10 10 14 18 12 7 11 11 16 21 30 31 29 32 36 36 38 42 40 39 42 38 27 26 27 16 6 6 3 2 11 22 23 22 25 28 33 40 40 35 32 30 31 34 35 34 33 32 34
31 24 14 15 19 18 13 7 3 2 6 8 5 5 7 8 9 11 14 17 14 11 11 12 14 16 17 19 20 21 20 19 21 20 17 17 16 20 24 15 6 13 19 14 5 9 9 9 15 31 31 25 27 36 43 42 44 45 38 36 41 34 28 30 23 12 7 4 3 6 10 18 28 33 31 33 40 44 41 37 35 35 35 33 32 31 30 32
32 21 10 17 22 20 14 9 7 4 7 9 7 7 9 9 9 9 13 16 13 11 12 12 15 17 16 16 16 17 17 16 17 16 13 15 17 19 18 15 14 17 19 16 18 11 5 5 12 32 31 23 25 33 46 48 44 46 41 35 41 38 30 29 27 22 13 3 4 5 4 16 29 31 34 35 34 36 41 42 41 42 41 38 36 33 29 28
34 23 12 18 21 20 17 11 7 4 5 8 8 7 9 9 7 8 13 16 12 9 11 12 13 15 15 15 15 15 15 15 15 14 12 13 14 16 16 18 24 23 19 15 20 22 15 14 14 27 30 27 28 29 39 49 45 43 41 38 40 38 31 21 16 25 26 11 6 6 3 16 25 23 25 29 28 29 37 42 43 43 43 42 41 38 32 28
37 29 18 20 18 16 14 6 4 3 3 8 7 6 9 8 4 7 11 13 11 9 11 11 11 14 13 13 14 15 15 16 15 12 12 12 13 17 23 27 28 22 21 20 18 24 22 18 16 21 30 32 33 28 27 38 45 44 40 38 40 39 38 27 13 20 30 23 18 12 6 13 21 18 17 19 23 27 32 40 43 41 41 41 40 37 34 31
39 30 20 20 17 15 13 7 6 5 2 7 9 8 8 4 1 5 9 11 11 11 12 12 12 14 13 12 15 17 16 16 14 13 14 16 17 19 25 30 29 24 22 22 20 22 17 12 15 18 28 33 37 34 24 22 33 43 42 40 40 41 43 39 28 25 27 26 25 12 6 15 20 17 16 19 22 27 30 38 42 42 43 40 37 35 33 31
39 31 23 21 19 15 15 9 6 6 5 9 11 11 8 2 1 4 8 12 13 11 12 13 12 12 12 13 14 14 14 13 13 16 18 19 20 20 22 27 28 27 24 21 22 24 18 15 19 15 13 19 25 28 23 17 21 35 44 45 43 43 44 40 33 28 24 27 31 14 6 20 21 13 15 21 21 27 30 33 37 40 44 41 37 36 35 32
39 34 28 25 19 12 12 8 6 6 8 10 10 11 10 6 3 3 9 14 10 7 10 12 11 12 13 14 13 11 11 11 15 19 20 20 22 21 22 25 27 28 26 22 21 22 22 21 17 10 6 6 10 10 9 10 13 22 36 46 47 42 41 38 31 27 22 24 32 24 18 28 26 15 18 18 11 21 25 29 33 36 39 38 35 35 36 33
39 37 33 29 18 5 7 6 5 5 8 10 10 9 9 8 6 5 9 11 5 3 10 12 11 11 12 13 14 12 12 11 13 17 19 22 24 24 24 26 28 28 25 22 21 21 24 22 11 9 12 14 17 14 6 6 11 11 15 33 49 43 39 40 34 29 26 25 31 33 29 34 36 28 22 12 8 19 25 30 32 30 30 30 29 32 36 33
37 38 37 32 20 6 5 8 7 6 8 9 10 8 7 8 9 9 8 7 5 5 9 10 9 10 11 14 15 13 14 13 12 15 17 20 23 24 25 25 25 25 24 23 21 20 24 20 10 14 20 17 19 19 13 11 12 9 8 15 42 48 41 41 39 35 30 23 24 30 31 34 38 31 18 10 10 18 25 30 30 26 25 25 24 28 34 33
35 36 34 29 22 14 4 8 8 8 8 8 7 5 5 6 9 10 8 6 5 7 9 10 10 11 12 13 14 14 15 15 14 15 18 21 23 24 26 24 20 21 27 27 21 17 21 20 16 24 22 12 12 13 13 13 12 10 12 9 31 48 47 41 40 39 34 27 24 25 26 29 32 25 17 13 13 18 25 28 25 20 21 24 25 28 31 32
36 36 32 26 20 17 10 5 7 6 5 6 6 5 6 8 9 11 11 11 10 8 9 10 11 12 12 11 11 12 14 16 17 18 20 22 21 23 27 25 19 19 25 26 22 16 18 19 19 27 22 7 8 9 11 11 10 10 9 8 21 40 49 44 40 38 35 33 30 25 24 25 25 20 17 16 17 22 26 27 21 17 19 23 25 27 29 30
35 36 33 26 19 15 11 7 7 5 4 6 7 6 8 10 11 13 13 13 13 10 8 10 12 13 12 10 9 11 14 16 16 17 20 21 19 20 24 25 22 19 20 23 22 16 16 18 20 27 23 5 6 10 14 12 8 7 3 10 19 31 44 46 41 38 34 32 31 29 26 24 23 21 17 18 24 26 25 24 20 18 19 22 24 26 29 31
34 35 33 27 21 17 12 7 7 6 4 6 7 9 11 12 14 17 14 9 9 10 10 13 15 15 15 13 11 12 15 15 14 14 16 17 18 18 21 23 23 20 19 22 24 20 17 21 20 26 24 9 1 6 14 11 6 3 8 6 12 22 34 41 41 39 35 30 30 33 33 27 25 25 21 20 25 24 22 22 21 19 20 22 25 26 28 30
32 33 31 27 22 18 13 8 7 7 6 6 7 10 12 13 14 17 17 11 8 10 11 13 14 14 15 16 14 14 16 16 15 16 16 16 18 19 21 22 19 17 17 18 23 24 19 21 21 23 22 12 7 4 9 8 4 2 15 17 7 7 18 30 34 33 34 32 31 33 35 27 23 26 25 23 20 18 19 20 20 21 21 22 24 27 29 28
Wind_Direction
326 325 324 323 321 320 318 317 316 315 315 314 313 311 309 307 306 304 302 301 298 295 293 293 291 291 290 287 285 281 277 273 271 267 259 244 229 221 212 213 214 206 203 207 206 201 200 199 198 200 201 198 194 192 195 195 205 211 207 233 175 112 115 115 102 89 330 255 240 279 150 132 146 153 156 175 204 210 175 163 141 161 130 157 198 187 172 166
323 322 321 320 318 317 316 315 314 313 313 311 311 310 309 307 306 304 302 301 299 295 292 291 289 290 290 288 287 283 280 276 274 272 262 244 230 224 216 215 217 209 202 206 207 203 201 200 201 203 202 201 195 193 196 198 204 201 205 214 157 117 106 101 113 113 296 273 261 196 162 140 149 151 156 173 189 198 195 179 190 224 158 166 190 184 175 171
320 319 318 316 315 314 313 312 311 310 309 308 308 308 307 305 305 303 301 300 299 296 292 289 288 288 288 288 289 285 284 280 278 273 258 244 232 227 222 219 220 213 203 204 205 203 201 198 203 205 202 199 195 200 200 198 203 195 210 210 144 106 102 97 113 128 134 259 198 168 161 158 161 152 156 168 184 211 219 195 189 216 176 174 182 183 179 173
319 318 317 315 314 312 311 310 308 307 306 305 304 304 303 302 302 301 300 299 297 295 292 290 288 286 286 287 288 287 287 286 284 277 261 245 230 228 226 223 225 217 203 201 199 196 194 196 201 203 202 197 194 201 198 194 197 194 204 184 120 84 76 101 119 143 159 219 205 183 173 172 180 163 164 177 192 218 241 253 317 189 180 178 180 184 183 178
319 318 317 315 313 312 310 309 307 306 304 303 302 301 299 298 298 297 297 297 296 294 292 289 287 285 284 284 285 286 286 291 292 281 272 250 224 222 223 219 221 217 205 203 199 192 191 194 197 198 201 197 194 197 196 195 192 196 205 175 125 270 297 103 117 157 188 206 197 193 189 167 180 185 188 201 221 249 267 248 269 245 232 203 187 189 187 184
322 320 318 316 314 313 311 309 307 305 303 302 300 299 297 295 294 293 293 293 293 293 290 288 286 285 283 282 281 280 283 289 282 259 268 272 222 218 219 212 208 210 209 206 199 194 192 194 195 197 197 195 198 198 193 193 193 202 209 196 186 242 266 144 201 298 196 195 192 190 199 186 184 195 208 221 242 267 270 250 263 228 240 242 199 196 193 189
326 325 323 320 317 315 312 310 308 306 304 301 300 298 296 294 291 289 288 289 290 289 289 287 285 283 281 280 278 277 282 281 268 261 264 260 225 217 216 209 205 208 213 210 203 198 194 195 198 198 196 195 199 199 192 190 196 210 212 201 198 233 267 278 253 276 215 191 185 168 183 206 198 193 204 219 233 242 231 238 237 212 217 200 195 200 199 193
337 336 333 329 325 322 319 315 311 308 305 302 300 298 295 293 290 288 286 285 285 285 285 284 283 282 280 277 276 280 283 273 265 262 259 244 220 215 215 211 210 213 216 215 211 205 199 200 200 197 197 197 200 200 192 188 197 212 212 197 195 230 258 262 232 247 222 197 192 178 193 229 236 207 199 212 225 227 220 221 208 207 209 191 191 197 199 195
356 355 352 347 343 338 334 328 322 317 311 306 302 298 296 292 289 287 284 283 282 281 280 279 280 279 277 275 274 281 280 269 266 258 248 237 221 214 215 215 216 216 215 215 213 210 206 205 203 201 199 196 199 200 192 192 202 209 204 197 208 224 235 234 221 219 211 203 204 211 217 234 238 219 208 221 229 217 208 210 195 203 209 196 193 193 197 197
4 3 0 357 352 348 346 341 337 331 324 318 311 304 298 293 289 286 284 281 279 278 276 276 276 275 275 272 270 277 271 264 262 251 241 231 220 217 215 215 217 218 217 215 213 213 211 209 206 203 199 192 196 198 192 197 207 209 209 221 231 227 223 228 232 223 217 210 206 226 238 225 216 209 208 217 221 210 201 194 185 195 209 201 195 191 194 198
0 359 357 354 350 347 345 343 340 337 333 329 322 315 307 299 291 286 283 280 277 276 273 272 270 270 270 267 270 272 254 254 254 245 238 226 209 205 213 217 215 215 216 217 217 218 214 210 206 200 196 195 197 198 197 200 205 207 216 237 245 245 240 235 235 233 234 228 210 222 238 219 205 207 214 214 207 208 203 184 184 190 202 204 197 192 191 196
354 353 352 350 348 345 344 342 341 338 334 331 327 322 316 309 301 292 284 279 276 274 271 269 267 267 265 264 270 266 245 244 245 244 244 240 225 207 208 216 217 212 211 214 216 217 211 204 202 198 194 196 198 203 205 201 204 211 222 242 248 251 251 243 235 232 236 233 211 207 225 219 210 211 220 215 203 205 203 190 190 185 188 198 195 195 193 192
347 347 347 348 348 347 347 347 347 345 342 338 332 326 319 314 308 300 291 282 277 273 270 267 264 263 262 258 243 244 245 238 239 242 244 246 244 233 217 209 214 213 206 207 207 211 209 197 199 199 191 191 197 204 209 201 210 225 232 245 252 255 254 246 238 231 234 232 210 205 225 220 212 211 216 216 207 203 197 191 190 181 181 190 193 196 193 192
342 341 342 346 349 350 351 351 352 351 350 348 343 336 326 319 311 305 299 289 280 273 270 266 263 260 260 255 233 236 242 240 243 247 248 247 244 246 229 204 205 210 205 200 196 202 204 193 196 198 191 188 192 202 217 213 220 231 238 245 248 253 250 242 240 232 229 230 214 212 232 230 217 210 213 216 214 207 197 190 188 182 182 187 193 194 192 194
337 337 339 343 348 350 350 351 352 351 351 351 349 343 337 332 321 312 305 297 289 278 270 266 263 260 259 256 245 239 237 242 252 257 257 249 239 237 221 194 194 204 203 196 193 195 191 187 193 196 192 190 191 204 221 225 224 227 239 244 240 249 249 241 245 232 224 230 218 215 236 243 226 215 215 216 217 213 201 194 188 184 186 188 192 191 190 194
334 334 335 339 344 346 346 347 349 350 349 350 349 347 344 340 331 322 314 306 297 286 274 266 262 260 260 259 251 241 235 236 242 240 242 242 233 226 207 183 184 196 197 191 194 192 181 184 194 197 195 195 199 211 225 235 233 225 233 242 239 246 248 243 241 226 225 231 219 217 238 238 215 215 219 218 219 214 204 199 190 185 189 192 194 189 189 192
334 333 332 334 338 342 343 342 344 346 346 346 346 346 344 341 334 326 321 313 302 293 283 272 265 260 258 256 250 240 232 225 219 215 224 233 230 223 213 190 180 191 192 186 192 190 181 185 196 200 199 202 205 215 228 236 233 225 228 235 236 240 243 242 234 216 222 228 214 218 241 240 218 212 216 220 219 212 206 205 196 189 192 197 199 194 194 196
336 333 329 330 332 335 338 337 338 340 341 342 342 343 343 339 333 325 321 317 303 294 289 281 271 264 258 248 240 234 228 224 221 215 212 216 220 224 223 200 179 188 188 184 190 189 184 188 196 202 206 208 208 214 222 223 222 221 223 227 232 236 235 237 233 216 211 217 212 217 235 238 224 212 212 215 214 210 210 211 206 203 200 199 205 203 200 199
336 333 327 326 327 329 332 332 333 334 337 338 339 340 337 331 327 323 326 331 323 309 298 287 274 265 253 239 232 227 222 219 221 221 212 205 208 217 225 207 188 194 190 186 191 188 186 191 197 206 210 208 206 211 218 218 218 222 222 222 228 234 231 229 230 215 205 212 216 221 230 228 216 207 207 209 209 209 212 212 211 214 206 200 207 208 203 202
335 333 328 326 325 325 328 329 329 330 333 335 336 336 334 332 330 329 331 344 348 327 298 278 271 266 253 238 228 224 221 216 216 216 208 199 199 210 219 207 199 206 201 193 192 189 189 195 202 206 208 207 206 207 215 219 219 223 225 224 225 230 230 225 219 205 203 220 222 222 231 225 212 206 204 205 206 206 209 210 212 219 217 209 209 209 206 204
333 332 329 328 327 325 326 327 327 328 330 333 337 338 342 344 343 338 332 343 1 332 300 281 266 269 265 250 232 227 223 218 216 210 200 193 193 206 213 204 200 207 208 199 195 191 192 203 209 209 208 209 211 209 212 218 218 222 226 224 225 227 227 224 219 209 212 233 235 230 235 224 209 205 201 199 202 205 209 212 216 226 230 221 212 208 206 200
333 332 329 328 328 326 324 325 325 326 328 332 337 339 345 347 346 345 337 341 3 349 326 321 276 270 273 261 228 222 224 217 214 207 200 193 190 202 206 201 200 205 209 205 199 195 200 211 214 211 209 210 215 214 213 215 218 222 222 225 229 228 228 232 232 228 226 235 240 238 239 226 209 208 209 207 212 214 215 219 226 239 241 230 218 208 202 196
333 331 329 327 327 326 324 324 324 324 326 330 333 336 342 344 341 345 342 342 4 18 10 19 342 281 253 247 218 216 222 216 210 203 200 199 194 198 200 199 200 203 209 210 203 198 205 218 217 210 207 209 214 216 216 216 219 222 221 226 230 225 230 238 234 232 232 232 237 241 241 226 203 202 208 210 217 220 219 226 233 246 252 244 230 215 205 201
333 332 331 327 327 328 324 324 324 324 326 328 332 336 338 340 338 344 346 345 11 29 27 38 20 24 220 238 217 218 221 213 208 202 201 204 198 197 199 198 199 202 209 213 210 205 209 219 219 211 207 208 211 214 216 218 220 221 219 222 227 222 226 235 232 234 240 238 242 242 235 216 194 191 197 200 207 214 216 218 221 235 247 242 232 221 212 210
334 333 332 329 328 330 327 325 324 323 325 327 332 333 332 335 340 346 347 347 19 25 13 26 22 31 35 318 217 221 223 215 207 198 201 206 198 196 199 198 201 206 210 213 216 216 216 218 218 214 210 208 210 212 212 214 219 222 218 216 219 221 224 233 239 249 257 255 250 238 225 209 196 192 193 196 200 207 211 213 218 230 234 225 219 217 212 212
333 332 333 331 329 331 330 326 325 323 324 327 328 328 326 332 343 351 346 342 21 15 352 4 11 13 14 355 239 222 226 224 214 198 198 203 199 198 200 202 205 210 213 213 218 223 223 219 215 217 215 211 210 213 212 211 218 223 220 214 215 223 230 236 243 254 260 259 256 237 217 209 202 195 195 198 199 203 209 214 220 226 227 222 218 214 210 209
333 332 334 334 331 332 331 329 328 325 324 327 329 326 322 332 351 354 346 335 8 2 342 345 355 356 2 356 318 213 212 243 225 209 205 202 199 199 204 209 209 212 214 211 217 225 225 221 215 216 223 217 210 214 212 208 216 223 222 218 220 228 231 235 243 250 254 258 267 250 221 209 207 201 198 198 198 201 207 214 219 221 225 226 224 219 213 210
333 332 333 334 332 332 332 332 331 328 327 329 329 324 321 339 358 350 346 331 299 331 326 320 337 348 5 12 4 50 170 314 267 220 215 209 202 200 206 213 213 214 214 210 217 224 224 222 217 213 221 222 215 216 213 208 215 222 223 224 226 231 233 237 245 250 254 262 271 262 239 219 212 207 202 199 198 200 206 214 217 219 225 229 230 225 218 213
332 333 332 332 332 332 334 334 331 330 329 328 326 322 327 352 358 334 326 253 294 312 308 305 308 314 352 42 61 35 335 279 283 237 213 210 206 205 209 213 216 219 218 216 222 226 226 228 225 217 219 223 224 223 216 211 216 220 221 224 228 232 235 241 248 251 253 258 262 259 251 243 222 209 204 198 198 202 208 216 219 222 226 230 232 229 221 215
330 333 332 331 331 331 334 333 328 327 326 326 324 323 338 355 341 331 2 310 318 312 296 296 303 301 339 33 56 7 348 313 272 240 215 214 211 210 212 214 218 223 224 223 226 228 227 231 232 225 223 222 225 230 222 215 215 218 221 223 226 231 235 242 248 247 249 249 250 253 250 247 249 219 209 204 205 210 213 217 219 221 225 229 232 229 222 219
330 333 332 330 329 327 332 331 322 321 320 320 319 324 342 345 339 53 185 300 314 314 302 301 312 295 319 358 355 337 340 352 329 287 261 251 225 214 212 214 220 224 228 229 229 230 228 226 226 229 231 225 222 228 228 221 216 215 218 219 225 234 236 243 244 237 235 231 242 249 249 241 241 238 223 214 216 219 219 219 218 221 225 226 229 229 226 223
331 333 333 331 330 328 332 328 319 317 314 314 318 328 334 342 57 29 315 311 315 327 327 321 318 295 302 334 340 335 331 336 351 17 34 327 244 222 214 212 215 219 226 230 230 232 231 228 225 227 233 228 221 221 223 222 219 214 214 214 217 231 233 235 240 231 218 228 239 244 245 235 234 246 242 224 218 220 220 223 226 227 227 225 227 228 227 225
332 333 334 335 333 332 336 329 319 317 316 324 332 329 325 58 66 344 327 332 327 326 328 325 318 306 314 327 324 329 333 329 346 10 23 15 247 231 221 215 216 221 228 231 230 233 235 234 230 227 230 228 222 220 217 215 215 212 210 210 208 201 210 221 228 232 223 228 236 240 237 225 229 241 243 233 223 221 220 225 232 235 232 229 229 229 227 224
335 335 338 342 341 337 339 333 325 326 334 348 351 336 356 58 348 322 331 333 318 312 316 322 323 318 331 339 325 330 331 323 340 352 11 30 45 29 239 218 220 231 236 233 228 229 233 234 229 226 227 227 224 222 219 215 215 212 208 209 212 209 201 203 202 215 212 210 228 233 229 212 214 232 239 235 230 228 228 231 234 236 236 234 234 232 228 224
339 338 340 346 347 343 343 341 341 349 1 10 18 40 40 13 343 339 335 324 316 313 315 322 327 329 346 352 340 342 329 319 329 328 354 22 25 24 29 152 200 235 250 247 234 230 234 236 235 231 227 226 225 224 219 216 216 213 208 210 218 218 213 213 230 219 202 162 218 229 230 224 219 230 238 233 232 232 235 240 235 231 232 230 231 233 229 224
343 341 339 340 340 345 353 358 8 10 7 13 35 48 31 351 336 336 323 321 321 320 322 329 335 342 350 344 338 340 326 324 331 322 331 4 7 6 25 62 54 45 47 345 245 226 235 239 237 235 232 226 223 223 218 214 214 210 207 211 218 221 219 222 237 222 200 184 212 225 236 243 233 230 229 226 230 230 231 239 230 224 227 227 229 235 233 227
349 345 338 332 331 338 349 3 34 24 346 349 8 25 16 345 321 318 317 322 321 318 328 340 344 348 343 330 327 333 329 326 332 331 329 334 350 355 1 41 40 42 46 4 249 224 250 251 231 221 230 227 220 222 222 216 215 210 208 211 213 219 225 226 229 220 191 205 207 210 227 243 241 240 241 236 235 235 234 237 230 219 220 224 229 235 236 232
353 348 331 316 319 323 332 336 12 29 334 333 346 5 4 348 340 339 332 329 323 322 339 342 337 337 333 326 325 333 336 331 332 338 335 330 341 343 334 348 35 36 31 19 245 236 289 284 235 210 218 227 218 218 223 221 218 216 216 213 205 205 215 216 218 215 187 206 238 206 218 232 236 238 244 242 238 236 234 234 232 222 217 220 227 231 234 234
352 348 315 297 306 308 324 327 283 331 336 320 323 340 338 323 325 341 341 334 331 336 341 331 322 322 325 330 332 334 337 334 334 339 333 329 333 327 320 312 329 15 20 29 2 275 288 316 253 217 214 231 225 214 218 220 217 218 221 215 207 209 211 209 212 212 189 187 227 216 213 225 232 234 237 241 237 234 233 233 232 229 226 227 229 228 229 231
351 351 292 285 300 296 304 304 278 321 347 331 320 316 327 323 308 324 335 330 331 338 333 318 315 317 316 325 336 338 337 334 337 344 334 323 319 311 307 298 305 343 5 19 17 345 285 349 270 227 220 238 234 215 215 216 213 213 214 205 203 209 211 212 218 215 203 166 177 192 223 231 234 236 235 239 240 233 229 229 229 231 232 232 232 230 225 225
352 353 307 292 300 291 290 291 283 316 358 352 343 327 334 334 318 336 338 327 327 334 324 310 311 317 312 316 328 336 337 333 333 341 331 317 317 305 292 298 308 327 345 354 16 12 340 329 296 244 238 245 234 218 217 217 214 212 211 205 203 203 199 200 218 215 211 216 204 186 233 240 237 239 236 237 241 235 225 222 223 226 227 228 231 231 226 222
356 359 338 316 312 292 285 283 268 278 356 348 331 324 336 329 321 355 348 333 326 318 315 313 310 316 316 313 319 326 333 331 325 328 325 309 303 290 282 293 300 308 330 334 352 3 343 325 312 265 248 241 225 218 222 220 218 217 214 211 209 205 200 199 201 204 207 219 230 226 251 246 233 234 245 246 243 239 228 222 222 222 222 224 227 228 223 219
358 6 355 330 319 294 279 266 235 230 310 313 282 287 324 338 336 345 347 342 330 317 320 325 315 310 313 313 315 322 331 330 314 306 311 300 288 284 284 292 292 286 306 326 340 353 354 351 336 288 252 242 232 226 230 226 221 220 217 213 212 209 208 209 209 204 202 211 222 227 264 244 220 214 250 268 257 244 231 226 226 222 220 221 223 223 220 216
354 4 8 349 331 298 276 266 246 250 294 296 281 285 299 314 11 339 349 342 327 316 318 324 319 310 312 318 319 324 330 332 320 306 306 302 295 296 292 289 288 283 290 313 332 338 341 342 336 320 275 252 240 235 239 242 231 222 216 213 215 212 209 210 211 209 207 211 214 209 245 236 211 199 266 284 264 239 226 221 223 223 222 220 221 224 222 218
349 356 7 4 348 305 270 256 246 272 300 301 299 301 295 287 281 322 345 334 319 319 319 314 314 312 309 311 312 315 316 325 329 316 312 316 313 308 303 293 283 276 277 294 313 319 322 324 321 320 317 270 254 250 246 263 259 230 216 215 215 212 207 207 205 202 205 212 213 211 227 231 216 221 279 295 249 217 209 204 211 219 222 219 221 226 221 217
348 350 357 5 8 329 248 235 233 266 296 301 301 307 309 311 308 314 330 320 291 310 317 304 306 311 306 307 312 321 321 319 322 315 314 321 319 312 310 300 283 275 277 288 296 302 314 321 316 305 304 290 279 268 240 287 284 254 229 218 214 211 209 209 206 203 205 207 210 215 224 233 231 239 270 287 198 191 191 192 201 211 215 214 218 222 216 212
350 347 349 357 7 2 228 217 233 260 276 294 303 311 325 330 320 304 296 286 269 298 306 294 301 310 309 316 323 326 324 317 311 313 315 314 313 313 310 302 291 281 275 276 285 302 314 315 324 328 312 289 277 265 247 277 281 274 308 237 214 210 207 207 209 209 208 203 208 215 219 233 240 242 255 259 205 198 195 190 194 201 206 210 209 207 209 211
350 348 348 351 354 351 314 217 235 262 261 279 306 321 316 305 307 305 292 276 273 292 302 301 307 308 306 314 321 321 321 315 308 312 315 312 313 316 313 309 303 281 267 269 281 304 315 311 325 334 318 270 254 266 260 275 279 276 307 268 213 210 208 207 210 211 211 210 213 214 214 230 243 239 236 239 220 207 198 189 193 201 206 208 199 192 200 209
349 348 347 350 353 350 334 254 244 266 268 285 307 321 306 295 302 308 305 303 299 300 312 314 309 304 302 305 310 315 316 312 312 316 316 312 313 319 319 317 311 284 268 269 274 291 312 314 326 337 328 265 219 247 244 252 273 289 288 236 204 208 210 210 212 213 216 219 221 221 219 229 238 233 227 222 202 193 190 187 196 205 203 202 195 186 188 195
348 347 345 348 356 352 331 289 260 267 285 302 309 315 312 312 311 304 303 306 306 306 304 295 292 294 299 303 306 310 307 303 308 314 312 308 306 313 317 314 312 300 274 263 264 276 305 310 323 339 335 303 194 228 224 225 266 318 302 199 196 206 211 213 214 215 219 222 222 223 227 230 227 223 219 201 187 187 188 190 198 204 201 197 192 188 186 187
347 347 344 345 354 356 338 295 262 266 284 299 308 316 320 325 320 314 319 320 304 303 293 283 290 295 295 297 299 301 299 297 299 299 300 302 298 300 302 302 310 309 280 261 256 259 286 299 316 339 331 311 355 247 226 216 245 349 53 104 184 204 211 214 216 217 220 224 223 221 229 232 219 214 212 193 185 188 189 190 196 204 204 196 190 191 192 191
346 345 345 344 349 355 344 312 274 272 286 302 314 320 318 320 320 319 325 328 313 313 301 290 300 304 298 298 297 294 290 289 294 294 290 290 287 287 288 289 302 311 294 272 257 255 278 295 307 332 326 309 355 332 218 205 225 75 49 45 66 188 208 210 214 219 220 224 223 220 227 226 202 196 199 191 187 194 193 192 197 201 200 195 193 193 191 191
Height
3156 3155 3154 3153 3152 3150 3149 3148 3147 3146 3145 3144 3143 3142 3141 3140 3139 3139 3139 3138 3138 3137 3136 3136 3136 3136 3136 3137 3138 3138 3138 3137 3137 3137 3138 3138 3139 3139 3141 3141 3142 3144 3145 3146 3148 3151 3153 3155 3157 3158 3160 3161 3163 3164 3164 3165 3165 3165 3165 3165 3166 3166 3167 3168 3169 3170 3170 3170 3170 3171 3172 3172 3172 3173 3173 3173 3174 3175 3174 3173 3173 3174 3174 3175 3177 3178 3178 3178
3155 3154 3153 3152 3150 3149 3148 3147 3146 3145 3144 3143 3142 3141 3139 3138 3137 3137 3136 3136 3136 3135 3134 3134 3134 3134 3134 3134 3135 3136 3136 3136 3135 3136 3136 3136 3136 3137 3139 3139 3139 3141 3143 3145 3147 3150 3153 3155 3156 3157 3158 3160 3162 3163 3163 3164 3164 3164 3164 3164 3164 3165 3166 3168 3169 3170 3171 3170 3170 3170 3171 3172 3172 3172 3172 3173 3174 3173 3172 3172 3173 3173 3173 3174 3176 3177 3178 3179
3154 3153 3152 3150 3149 3148 3147 3146 3144 3143 3142 3141 3140 3140 3138 3137 3136 3135 3134 3134 3134 3133 3132 3132 3132 3132 3132 3132 3133 3133 3134 3134 3134 3134 3134 3134 3134 3135 3136 3137 3138 3140 3143 3145 3147 3149 3152 3154 3154 3155 3157 3159 3160 3161 3161 3162 3163 3163 3163 3163 3164 3165 3166 3167 3168 3170 3171 3171 3171 3170 3171 3171 3172 3172 3172 3173 3172 3171 3171 3172 3172 3173 3173 3174 3175 3177 3178 3179
3153 3151 3150 3149 3148 3146 3145 3144 3143 3142 3140 3139 3139 3138 3137 3136 3135 3133 3132 3132 3132 3131 3130 3130 3130 3130 3130 3130 3130 3131 3131 3132 3132 3132 3132 3132 3133 3133 3135 3136 3137 3139 3142 3143 3144 3147 3150 3151 3152 3153 3155 3157 3159 3159 3160 3161 3162 3163 3163 3162 3163 3164 3165 3166 3167 3170 3171 3172 3171 3170 3170 3170 3171 3172 3172 3172 3171 3170 3171 3172 3172 3173 3174 3174 3175 3176 3178 3179
3151 3150 3148 3147 3146 3144 3143 3142 3141 3140 3138 3137 3136 3136 3135 3134 3133 3132 3130 3130 3129 3129 3128 3128 3127 3128 3128 3128 3128 3128 3129 3130 3130 3130 3130 3130 3131 3132 3133 3135 3137 3139 3140 3140 3142 3144 3145 3147 3149 3151 3153 3155 3156 3157 3158 3160 3161 3162 3162 3162 3162 3163 3165 3165 3167 3169 3170 3171 3172 3170 3170 3170 3170 3171 3172 3171 3170 3170 3171 3172 3173 3174 3175 3175 3175 3176 3178 3179
3149 3148 3147 3145 3144 3142 3141 3140 3139 3137 3136 3135 3134 3133 3133 3132 3131 3130 3129 3128 3127 3127 3126 3126 3125 3125 3126 3126 3126 3126 3127 3128 3128 3129 3129 3130 3130 3130 3132 3134 3135 3137 3137 3138 3140 3141 3142 3144 3146 3147 3150 3153 3154 3156 3158 3159 3160 3160 3160 3162 3162 3163 3164 3164 3166 3168 3169 3170 3171 3171 3171 3170 3170 3171 3172 3171 3170 3171 3172 3173 3174 3175 3175 3175 3176 3176 3177 3179
3148 3146 3145 3143 3142 3140 3139 3138 3136 3135 3134 3132 3131 3131 3130 3129 3128 3127 3126 3126 3125 3125 3124 3124 3123 3123 3123 3124 3124 3124 3126 3126 3126 3127 3128 3129 3129 3129 3130 3132 3134 3134 3134 3136 3137 3138 3140 3141 3142 3145 3148 3150 3152 3155 3158 3158 3159 3159 3159 3160 3161 3162 3163 3163 3165 3168 3169 3169 3170 3171 3171 3170 3170 3171 3171 3171 3171 3172 3173 3173 3174 3175 3175 3175 3175 3176 3178 3179
3146 3145 3143 3141 3140 3138 3137 3135 3134 3133 3131 3130 3129 3128 3127 3126 3125 3124 3124 3123 3123 3123 3122 3122 3121 3121 3121 3121 3121 3123 3124 3123 3123 3125 3126 3127 3128 3128 3128 3130 3131 3132 3133 3135 3136 3138 3139 3139 3141 3144 3146 3148 3151 3154 3157 3157 3157 3157 3158 3159 3160 3161 3162 3163 3165 3167 3168 3169 3170 3170 3170 3169 3170 3171 3171 3171 3170 3171 3172 3173 3174 3174 3175 3175 3175 3176 3177 3179
3145 3143 3142 3140 3138 3137 3135 3133 3132 3130 3129 3127 3126 3125 3124 3123 3122 3121 3121 3120 3120 3120 3119 3119 3119 3119 3119 3119 3119 3121 3121 3120 3121 3123 3123 3124 3126 3127 3127 3128 3129 3131 3132 3134 3136 3137 3137 3137 3140 3142 3144 3148 3151 3153 3155 3155 3155 3156 3157 3158 3159 3160 3161 3163 3164 3165 3167 3168 3169 3169 3169 3169 3169 3171 3172 3171 3170 3171 3171 3172 3173 3174 3174 3175 3175 3176 3177 3178
3144 3142 3141 3139 3137 3135 3134 3132 3130 3128 3127 3125 3123 3122 3121 3120 3119 3118 3117 3117 3117 3117 3116 3117 3116 3116 3116 3116 3117 3120 3119 3118 3119 3121 3121 3123 3124 3125 3126 3127 3128 3130 3131 3132 3133 3134 3135 3138 3141 3143 3145 3148 3149 3151 3153 3153 3154 3155 3156 3157 3158 3159 3161 3162 3163 3164 3165 3166 3167 3167 3168 3169 3169 3169 3170 3169 3169 3170 3170 3171 3172 3173 3173 3174 3174 3175 3176 3178
3143 3141 3139 3138 3136 3134 3132 3130 3129 3127 3125 3123 3121 3119 3118 3116 3116 3115 3114 3113 3114 3114 3113 3113 3113 3113 3114 3113 3116 3118 3118 3116 3117 3118 3119 3120 3122 3123 3124 3125 3127 3128 3130 3131 3132 3133 3136 3138 3141 3143 3144 3145 3147 3150 3151 3151 3153 3155 3155 3157 3157 3158 3159 3161 3161 3162 3163 3165 3166 3166 3167 3169 3168 3168 3168 3167 3167 3168 3169 3170 3171 3172 3173 3173 3174 3175 3176 3177
3142 3140 3138 3136 3134 3132 3131 3129 3127 3125 3123 3121 3119 3117 3115 3113 3112 3112 3111 3110 3110 3110 3109 3110 3110 3110 3110 3111 3114 3115 3115 3115 3115 3115 3116 3118 3120 3121 3122 3124 3125 3127 3128 3130 3131 3133 3135 3138 3140 3140 3141 3144 3146 3148 3149 3151 3152 3153 3155 3155 3155 3156 3157 3157 3159 3160 3161 3162 3164 3165 3166 3166 3165 3165 3165 3165 3166 3167 3168 3168 3169 3171 3171 3172 3173 3174 3175 3177
3140 3138 3136 3135 3133 3131 3129 3127 3125 3123 3121 3119 3117 3115 3113 3111 3109 3108 3108 3107 3107 3106 3106 3106 3106 3107 3106 3108 3114 3113 3112 3113 3112 3112 3114 3117 3118 3119 3120 3121 3123 3125 3126 3129 3131 3133 3135 3136 3138 3139 3140 3142 3144 3147 3148 3150 3151 3151 3153 3153 3154 3154 3152 3153 3156 3158 3159 3160 3163 3164 3163 3163 3163 3163 3163 3164 3165 3166 3167 3167 3168 3168 3169 3171 3172 3172 3173 3175
3139 3137 3135 3133 3131 3129 3127 3125 3123 3121 3120 3118 3115 3113 3110 3109 3107 3105 3104 3103 3103 3103 3102 3101 3102 3103 3102 3105 3112 3111 3109 3109 3108 3111 3113 3115 3117 3118 3118 3119 3120 3123 3125 3127 3130 3132 3134 3136 3138 3139 3139 3140 3142 3145 3147 3148 3149 3149 3151 3151 3151 3151 3149 3150 3153 3155 3156 3157 3160 3161 3159 3159 3161 3161 3162 3163 3164 3165 3166 3166 3167 3167 3167 3169 3171 3171 3172 3173
3138 3135 3133 3131 3129 3127 3125 3123 3122 3120 3118 3116 3114 3111 3108 3106 3104 3102 3101 3100 3100 3099 3098 3097 3098 3099 3098 3102 3108 3107 3107 3108 3108 3111 3112 3113 3115 3116 3117 3117 3118 3121 3123 3126 3128 3129 3132 3134 3135 3136 3137 3139 3141 3142 3143 3144 3145 3146 3147 3147 3148 3148 3147 3148 3150 3151 3153 3154 3157 3158 3155 3155 3157 3160 3161 3163 3164 3165 3165 3165 3166 3166 3166 3167 3169 3170 3171 3172
3136 3134 3132 3130 3128 3125 3123 3121 3120 3118 3116 3114 3112 3109 3106 3104 3101 3099 3098 3097 3096 3095 3094 3093 3094 3095 3095 3099 3103 3103 3104 3106 3107 3108 3108 3110 3113 3114 3116 3115 3117 3119 3121 3123 3126 3128 3130 3132 3133 3134 3136 3137 3138 3139 3141 3142 3141 3142 3143 3143 3144 3145 3146 3146 3147 3149 3151 3152 3154 3154 3152 3152 3154 3157 3160 3161 3162 3164 3164 3164 3164 3164 3164 3164 3166 3168 3169 3170
3135 3133 3130 3128 3126 3124 3122 3119 3118 3116 3114 3112 3110 3107 3105 3102 3099 3097 3096 3094 3093 3092 3090 3089 3091 3092 3093 3096 3098 3099 3100 3101 3101 3102 3103 3107 3110 3112 3113 3114 3115 3117 3119 3121 3124 3125 3127 3128 3130 3132 3133 3133 3134 3137 3139 3137 3136 3137 3140 3141 3142 3143 3144 3144 3145 3147 3149 3150 3152 3151 3150 3150 3151 3154 3157 3158 3159 3161 3162 3162 3162 3163 3163 3163 3164 3165 3167 3168
3133 3131 3129 3127 3125 3122 3120 3118 3115 3114 3112 3109 3107 3104 3102 3100 3097 3095 3094 3092 3090 3089 3087 3086 3087 3088 3090 3093 3094 3096 3097 3097 3097 3097 3098 3102 3106 3109 3110 3111 3113 3115 3117 3118 3120 3122 3124 3125 3127 3128 3128 3128 3129 3131 3131 3130 3132 3135 3137 3139 3140 3141 3141 3141 3142 3145 3147 3148 3149 3149 3148 3149 3150 3151 3154 3155 3157 3158 3159 3160 3161 3161 3161 3162 3163 3164 3165 3166
3132 3130 3128 3126 3123 3121 3119 3116 3113 3111 3109 3107 3105 3102 3100 3098 3095 3092 3091 3090 3088 3087 3085 3083 3083 3084 3087 3089 3092 3093 3093 3094 3095 3095 3096 3098 3102 3105 3106 3109 3111 3113 3114 3114 3115 3118 3120 3122 3123 3122 3121 3121 3122 3124 3126 3128 3132 3134 3136 3138 3139 3139 3138 3138 3140 3142 3145 3146 3147 3147 3146 3147 3148 3149 3151 3154 3155 3156 3158 3159 3159 3159 3160 3161 3162 3163 3164 3164
3130 3128 3126 3124 3122 3119 3117 3114 3111 3109 3107 3105 3102 3099 3096 3091 3088 3085 3086 3087 3085 3082 3081 3080 3078 3078 3082 3087 3089 3089 3089 3091 3091 3093 3095 3096 3100 3103 3104 3105 3108 3110 3110 3110 3112 3114 3117 3118 3116 3113 3113 3116 3120 3123 3126 3130 3133 3134 3136 3137 3137 3137 3137 3137 3138 3139 3142 3144 3144 3144 3145 3144 3145 3146 3148 3151 3153 3155 3156 3157 3157 3157 3158 3160 3161 3162 3163 3164
3128 3126 3124 3122 3120 3117 3115 3112 3110 3107 3104 3102 3099 3095 3091 3086 3082 3079 3078 3081 3083 3077 3075 3076 3074 3073 3077 3084 3087 3086 3086 3086 3088 3092 3093 3093 3097 3100 3101 3102 3103 3104 3105 3109 3111 3113 3115 3112 3108 3108 3113 3117 3121 3123 3126 3129 3131 3132 3134 3135 3135 3136 3135 3136 3136 3137 3141 3142 3141 3142 3143 3142 3142 3143 3145 3148 3150 3150 3152 3153 3154 3155 3156 3158 3160 3161 3162 3163
3127 3124 3122 3120 3118 3116 3113 3111 3108 3106 3103 3101 3098 3095 3092 3089 3086 3083 3078 3076 3078 3075 3072 3072 3071 3070 3074 3079 3082 3082 3080 3081 3085 3089 3090 3090 3091 3094 3097 3098 3098 3099 3103 3107 3109 3110 3110 3105 3103 3108 3114 3118 3120 3123 3125 3127 3129 3130 3131 3132 3132 3133 3134 3134 3134 3136 3140 3140 3139 3141 3142 3140 3139 3139 3141 3143 3145 3146 3148 3149 3150 3152 3154 3156 3158 3159 3160 3161
3125 3123 3120 3118 3116 3114 3112 3110 3107 3105 3102 3100 3098 3095 3093 3090 3087 3086 3082 3078 3076 3074 3072 3070 3068 3068 3069 3073 3076 3074 3073 3077 3081 3085 3087 3087 3087 3090 3093 3094 3095 3098 3100 3101 3102 3103 3102 3098 3101 3110 3114 3116 3119 3121 3123 3126 3127 3127 3128 3129 3128 3130 3132 3130 3129 3133 3138 3138 3138 3138 3139 3139 3137 3138 3139 3139 3141 3143 3145 3146 3148 3149 3151 3153 3156 3156 3157 3158
3123 3120 3118 3116 3114 3112 3110 3108 3106 3103 3101 3099 3097 3094 3092 3090 3086 3084 3082 3078 3076 3074 3072 3070 3067 3066 3066 3068 3070 3068 3069 3075 3078 3081 3084 3084 3085 3088 3090 3092 3094 3095 3095 3097 3099 3098 3096 3096 3103 3109 3111 3114 3117 3119 3121 3123 3124 3124 3125 3125 3125 3127 3129 3127 3126 3131 3135 3135 3136 3137 3137 3137 3136 3136 3138 3139 3141 3143 3143 3145 3147 3147 3149 3152 3154 3154 3155 3156
3120 3118 3116 3113 3112 3110 3108 3106 3104 3102 3100 3098 3096 3094 3091 3089 3086 3083 3080 3077 3075 3073 3072 3070 3067 3065 3064 3066 3066 3066 3069 3071 3074 3079 3080 3082 3084 3085 3088 3091 3091 3092 3092 3096 3098 3097 3096 3099 3103 3106 3108 3111 3113 3115 3117 3119 3121 3121 3120 3121 3122 3124 3126 3126 3126 3130 3132 3131 3132 3134 3133 3134 3134 3132 3133 3136 3139 3141 3142 3143 3143 3144 3146 3149 3151 3152 3153 3154
3118 3116 3114 3111 3109 3108 3106 3104 3102 3101 3099 3097 3095 3093 3091 3088 3085 3082 3079 3077 3074 3072 3071 3069 3068 3066 3065 3065 3064 3064 3067 3068 3073 3078 3078 3080 3083 3084 3087 3088 3088 3089 3092 3096 3098 3095 3094 3099 3103 3104 3106 3108 3110 3111 3113 3116 3119 3117 3116 3119 3121 3123 3125 3124 3125 3130 3130 3127 3129 3131 3130 3129 3131 3130 3129 3132 3134 3137 3139 3139 3139 3141 3143 3146 3148 3149 3151 3152
3117 3114 3112 3109 3106 3105 3103 3101 3100 3098 3096 3095 3093 3092 3090 3087 3084 3082 3080 3077 3074 3071 3070 3068 3067 3066 3066 3066 3064 3063 3067 3069 3073 3076 3076 3078 3081 3082 3084 3085 3086 3088 3092 3096 3094 3089 3091 3097 3100 3102 3103 3105 3106 3106 3108 3113 3114 3111 3113 3119 3120 3121 3122 3120 3124 3128 3127 3126 3126 3128 3128 3125 3125 3127 3127 3128 3130 3132 3134 3135 3137 3139 3140 3142 3145 3147 3148 3150
3115 3112 3110 3108 3104 3102 3101 3099 3097 3095 3094 3093 3091 3090 3088 3085 3082 3081 3080 3078 3073 3069 3069 3068 3067 3067 3067 3067 3065 3065 3068 3071 3073 3075 3077 3078 3079 3079 3079 3081 3085 3086 3090 3091 3085 3083 3090 3093 3095 3099 3101 3100 3099 3100 3105 3110 3110 3110 3114 3119 3119 3120 3120 3119 3122 3125 3125 3125 3122 3122 3126 3125 3121 3123 3125 3126 3126 3128 3130 3131 3133 3135 3137 3139 3142 3144 3146 3148
3113 3110 3108 3106 3103 3100 3098 3096 3094 3093 3092 3090 3089 3088 3086 3083 3081 3081 3080 3078 3073 3069 3069 3069 3068 3068 3068 3067 3066 3067 3068 3069 3071 3072 3076 3078 3077 3077 3078 3080 3084 3086 3087 3087 3083 3086 3090 3090 3093 3097 3096 3095 3096 3100 3104 3107 3108 3110 3115 3118 3119 3120 3119 3118 3121 3122 3124 3123 3118 3117 3123 3123 3120 3120 3121 3122 3121 3121 3124 3127 3128 3130 3133 3136 3138 3140 3143 3145
3110 3108 3106 3104 3102 3100 3097 3095 3092 3091 3090 3088 3087 3085 3083 3082 3081 3081 3080 3077 3072 3069 3068 3069 3069 3069 3068 3067 3065 3065 3065 3066 3066 3066 3069 3074 3076 3076 3077 3080 3083 3084 3085 3085 3084 3086 3088 3090 3092 3092 3091 3093 3097 3100 3103 3105 3107 3111 3114 3116 3118 3119 3119 3118 3118 3121 3121 3118 3114 3113 3117 3121 3119 3116 3115 3114 3114 3116 3120 3123 3125 3128 3131 3133 3135 3136 3139 3142
3108 3106 3104 3102 3100 3098 3096 3095 3092 3090 3088 3087 3085 3083 3083 3082 3081 3081 3080 3075 3072 3069 3067 3067 3069 3069 3069 3069 3066 3064 3063 3064 3063 3062 3063 3069 3073 3074 3075 3077 3080 3081 3081 3081 3081 3084 3087 3088 3087 3087 3089 3093 3096 3098 3100 3103 3106 3109 3111 3114 3116 3115 3117 3116 3115 3117 3115 3112 3110 3110 3113 3117 3115 3111 3111 3110 3110 3112 3115 3118 3121 3124 3126 3129 3131 3133 3136 3138
3106 3104 3102 3100 3098 3096 3094 3093 3090 3089 3087 3086 3084 3082 3082 3081 3081 3081 3079 3075 3073 3071 3067 3067 3068 3068 3068 3069 3069 3067 3064 3063 3062 3061 3061 3064 3067 3070 3072 3073 3075 3077 3076 3076 3078 3081 3082 3081 3082 3085 3087 3090 3092 3094 3097 3101 3102 3105 3108 3111 3112 3112 3114 3113 3110 3109 3108 3107 3108 3108 3110 3112 3108 3107 3108 3109 3109 3109 3110 3114 3117 3119 3122 3125 3127 3129 3132 3135
3104 3101 3100 3098 3096 3094 3092 3090 3088 3087 3085 3083 3082 3081 3080 3081 3081 3081 3078 3075 3074 3072 3070 3069 3068 3069 3068 3067 3068 3066 3064 3063 3062 3061 3061 3061 3062 3065 3069 3072 3073 3074 3073 3074 3077 3078 3077 3077 3080 3082 3083 3085 3088 3089 3092 3094 3097 3100 3102 3104 3105 3107 3109 3109 3106 3104 3103 3104 3105 3107 3108 3105 3103 3103 3104 3106 3109 3109 3110 3113 3114 3116 3119 3122 3124 3126 3128 3131
3102 3099 3097 3096 3094 3092 3090 3088 3086 3085 3083 3081 3081 3080 3080 3080 3081 3080 3078 3076 3074 3071 3071 3070 3067 3068 3069 3068 3068 3066 3063 3062 3061 3061 3061 3060 3059 3061 3065 3070 3075 3075 3072 3072 3073 3073 3073 3072 3072 3074 3077 3081 3084 3085 3087 3091 3094 3095 3097 3099 3099 3097 3099 3101 3101 3099 3099 3100 3102 3104 3102 3098 3097 3099 3101 3105 3107 3108 3110 3111 3112 3114 3116 3119 3121 3122 3124 3128
3100 3096 3094 3093 3093 3091 3088 3087 3085 3083 3081 3080 3081 3080 3080 3080 3080 3078 3077 3075 3073 3071 3070 3070 3067 3066 3068 3069 3068 3067 3066 3064 3062 3061 3062 3061 3061 3062 3063 3064 3067 3066 3065 3067 3067 3068 3069 3066 3067 3073 3076 3078 3080 3081 3086 3090 3090 3091 3094 3095 3092 3090 3094 3097 3097 3096 3097 3098 3098 3097 3094 3092 3095 3098 3100 3104 3105 3106 3108 3108 3110 3112 3113 3117 3119 3119 3122 3125
3100 3096 3093 3091 3090 3089 3087 3085 3084 3082 3081 3081 3080 3080 3079 3080 3079 3078 3077 3075 3074 3072 3069 3068 3067 3066 3067 3067 3066 3067 3067 3066 3063 3061 3063 3063 3063 3064 3063 3061 3060 3059 3061 3065 3064 3065 3065 3062 3065 3072 3073 3073 3076 3078 3082 3084 3084 3087 3090 3086 3085 3090 3095 3096 3096 3095 3096 3096 3094 3092 3089 3090 3094 3095 3097 3101 3102 3103 3105 3105 3107 3109 3111 3114 3115 3117 3120 3122
3098 3094 3091 3088 3087 3085 3084 3083 3082 3081 3081 3081 3080 3080 3079 3080 3079 3078 3077 3075 3074 3073 3070 3069 3068 3068 3067 3067 3066 3065 3065 3065 3064 3063 3063 3063 3063 3062 3061 3060 3060 3060 3063 3065 3063 3064 3063 3057 3059 3066 3066 3067 3072 3075 3078 3079 3080 3082 3080 3079 3086 3093 3094 3094 3094 3093 3094 3094 3091 3090 3088 3088 3090 3090 3092 3096 3097 3099 3100 3102 3104 3107 3109 3111 3113 3116 3117 3119
3095 3092 3089 3086 3083 3082 3081 3081 3081 3080 3080 3080 3080 3079 3079 3079 3078 3077 3076 3074 3073 3072 3072 3071 3070 3070 3069 3067 3067 3066 3065 3065 3064 3064 3064 3063 3063 3062 3059 3058 3059 3060 3061 3062 3060 3061 3060 3054 3053 3057 3060 3063 3068 3072 3073 3074 3076 3077 3076 3079 3085 3087 3086 3088 3090 3089 3090 3091 3089 3088 3087 3087 3086 3086 3088 3091 3092 3094 3096 3098 3101 3103 3105 3108 3110 3113 3115 3116
3094 3091 3087 3083 3080 3080 3080 3080 3080 3079 3079 3079 3078 3078 3078 3078 3077 3076 3074 3073 3072 3072 3072 3072 3071 3070 3069 3068 3068 3067 3066 3066 3065 3065 3065 3064 3063 3062 3060 3058 3058 3058 3059 3059 3058 3057 3058 3056 3052 3051 3056 3060 3063 3065 3064 3066 3070 3073 3075 3077 3079 3079 3080 3082 3083 3083 3086 3088 3088 3088 3087 3084 3083 3085 3087 3088 3087 3090 3092 3094 3097 3099 3101 3104 3106 3109 3111 3114
3092 3090 3086 3081 3078 3078 3078 3079 3079 3078 3077 3077 3077 3077 3077 3076 3075 3075 3073 3072 3072 3072 3072 3071 3070 3070 3069 3069 3068 3068 3067 3067 3066 3066 3066 3065 3063 3062 3060 3059 3057 3056 3056 3057 3057 3054 3054 3056 3052 3049 3052 3056 3056 3057 3058 3059 3063 3067 3069 3071 3073 3075 3077 3080 3080 3080 3082 3084 3085 3087 3084 3080 3080 3082 3083 3082 3083 3085 3088 3090 3092 3095 3097 3100 3102 3105 3108 3111
3090 3087 3084 3079 3077 3077 3078 3079 3078 3077 3077 3076 3076 3075 3074 3074 3074 3074 3072 3071 3071 3071 3071 3070 3070 3069 3068 3068 3068 3068 3067 3067 3066 3066 3065 3064 3063 3062 3059 3058 3057 3056 3054 3054 3055 3054 3053 3053 3051 3047 3047 3049 3050 3052 3056 3058 3060 3062 3064 3066 3068 3070 3073 3076 3077 3077 3079 3080 3080 3082 3080 3076 3076 3078 3078 3078 3079 3081 3084 3086 3088 3090 3093 3096 3099 3102 3106 3109
3087 3084 3079 3076 3075 3075 3076 3077 3076 3075 3076 3075 3074 3072 3071 3072 3072 3072 3071 3070 3070 3070 3070 3070 3069 3068 3068 3067 3067 3067 3067 3066 3065 3064 3064 3063 3063 3062 3059 3057 3058 3058 3057 3055 3055 3056 3055 3053 3050 3045 3044 3045 3046 3048 3053 3057 3059 3061 3062 3064 3067 3068 3068 3069 3070 3071 3075 3077 3078 3078 3076 3072 3073 3075 3075 3076 3076 3077 3079 3082 3084 3087 3090 3093 3096 3099 3103 3107
3084 3083 3079 3074 3073 3073 3073 3074 3073 3073 3073 3072 3071 3070 3070 3070 3070 3069 3069 3069 3069 3069 3069 3069 3068 3067 3067 3066 3066 3066 3066 3066 3064 3062 3063 3062 3061 3061 3059 3057 3057 3059 3060 3058 3056 3054 3053 3052 3050 3045 3041 3042 3043 3045 3048 3051 3055 3058 3059 3061 3063 3063 3063 3064 3066 3070 3072 3073 3075 3076 3074 3071 3070 3071 3073 3073 3073 3073 3075 3077 3080 3084 3087 3090 3094 3097 3100 3104
3082 3083 3080 3074 3071 3070 3070 3071 3071 3071 3070 3069 3069 3069 3069 3069 3068 3068 3068 3068 3068 3068 3067 3067 3067 3066 3066 3066 3065 3065 3066 3065 3062 3061 3061 3060 3059 3059 3058 3057 3057 3058 3059 3059 3057 3056 3055 3054 3053 3049 3044 3042 3042 3043 3045 3047 3050 3052 3054 3056 3058 3059 3062 3064 3066 3070 3069 3069 3071 3073 3072 3070 3067 3068 3070 3068 3067 3068 3070 3073 3076 3080 3083 3088 3092 3094 3097 3102
3079 3078 3078 3074 3070 3068 3069 3069 3070 3069 3068 3068 3068 3068 3068 3067 3067 3067 3068 3068 3067 3066 3066 3066 3066 3065 3065 3064 3064 3064 3064 3064 3062 3059 3058 3058 3056 3056 3056 3055 3056 3057 3058 3059 3059 3059 3058 3056 3055 3053 3051 3048 3043 3042 3044 3045 3046 3047 3049 3051 3053 3056 3059 3061 3064 3065 3064 3066 3068 3068 3069 3068 3065 3065 3067 3064 3062 3063 3067 3070 3073 3077 3081 3086 3089 3091 3094 3099
3078 3074 3073 3073 3070 3068 3068 3068 3068 3068 3068 3067 3068 3068 3067 3067 3067 3067 3067 3066 3065 3065 3064 3064 3064 3064 3063 3063 3062 3062 3063 3063 3061 3059 3057 3056 3054 3054 3053 3053 3054 3055 3056 3057 3057 3057 3056 3055 3053 3053 3052 3049 3045 3042 3043 3044 3044 3043 3043 3046 3049 3053 3056 3058 3060 3059 3060 3064 3064 3064 3068 3067 3062 3064 3067 3065 3062 3062 3065 3069 3072 3076 3080 3083 3086 3088 3092 3096
3079 3074 3070 3069 3069 3068 3068 3067 3067 3067 3067 3067 3067 3068 3067 3067 3067 3066 3065 3065 3064 3064 3063 3062 3063 3063 3062 3061 3061 3061 3061 3060 3060 3058 3056 3055 3053 3052 3051 3050 3051 3053 3054 3054 3055 3055 3054 3051 3050 3049 3046 3044 3042 3041 3041 3043 3042 3041 3040 3041 3044 3048 3051 3054 3055 3056 3058 3061 3060 3061 3067 3065 3060 3064 3068 3066 3064 3064 3065 3068 3072 3075 3078 3081 3083 3086 3090 3094
3080 3076 3073 3070 3068 3067 3066 3066 3066 3066 3066 3066 3067 3067 3067 3066 3066 3064 3063 3063 3064 3063 3062 3061 3062 3061 3061 3061 3060 3060 3059 3058 3057 3057 3056 3053 3051 3050 3048 3048 3049 3050 3050 3051 3053 3054 3052 3049 3047 3045 3040 3039 3039 3039 3040 3040 3040 3039 3039 3038 3039 3042 3046 3048 3051 3055 3057 3058 3058 3061 3065 3062 3060 3065 3068 3066 3065 3065 3066 3069 3072 3074 3077 3078 3081 3084 3087 3091
3079 3076 3073 3071 3068 3066 3064 3064 3064 3065 3065 3065 3065 3066 3065 3065 3064 3064 3063 3062 3062 3062 3061 3060 3060 3060 3059 3059 3059 3058 3058 3056 3055 3055 3054 3052 3050 3048 3046 3046 3047 3047 3047 3048 3051 3053 3051 3047 3046 3044 3038 3036 3037 3037 3037 3037 3036 3036 3036 3035 3035 3038 3042 3046 3050 3054 3056 3056 3058 3061 3062 3061 3061 3064 3066 3065 3065 3065 3066 3069 3071 3073 3075 3077 3079 3082 3085 3089
3077 3074 3071 3069 3068 3065 3063 3062 3062 3063 3064 3064 3064 3064 3064 3064 3063 3062 3062 3061 3059 3060 3059 3058 3058 3058 3057 3057 3057 3057 3056 3055 3054 3053 3052 3051 3049 3047 3045 3044 3044 3045 3045 3046 3048 3050 3050 3046 3045 3044 3038 3033 3034 3034 3034 3034 3034 3034 3034 3033 3034 3036 3040 3044 3048 3051 3054 3056 3058 3060 3060 3060 3061 3063 3064 3064 3064 3065 3066 3068 3069 3071 3073 3075 3078 3081 3084 3088
3076 3073 3070 3067 3066 3064 3062 3061 3061 3061 3062 3062 3063 3062 3062 3062 3061 3059 3059 3059 3058 3058 3058 3057 3056 3056 3055 3055 3055 3055 3054 3053 3052 3051 3050 3049 3048 3046 3045 3043 3042 3042 3043 3045 3046 3048 3048 3046 3044 3044 3039 3032 3030 3030 3031 3032 3033 3033 3033 3033 3035 3037 3039 3042 3045 3050 3053 3056 3057 3057 3057 3059 3061 3062 3062 3063 3064 3064 3065 3067 3069 3070 3072 3074 3077 3080 3083 3087
3075 3072 3069 3066 3064 3063 3061 3060 3059 3060 3060 3061 3061 3060 3060 3060 3060 3058 3057 3058 3058 3057 3056 3055 3055 3054 3053 3053 3053 3053 3052 3051 3050 3048 3047 3046 3045 3044 3044 3043 3043 3042 3042 3043 3044 3045 3047 3046 3044 3044 3040 3032 3028 3028 3029 3031 3033 3033 3033 3032 3033 3036 3037 3040 3046 3050 3051 3053 3054 3055 3055 3058 3061 3060 3060 3062 3062 3063 3064 3066 3068 3069 3071 3073 3076 3079 3082 3086